[[{"header":{"parameterUnit":"m.s-1","parameterCategory":1,"la1":30.2991,"la2":30.254,"lo1":-89.0895,"lo2":-89.0444,"dy":0.0017,"dx":0.0017,"nx":28,"ny":28,"refTime":"2025-08-16T03:00:00:Z","depth":0,"parameterNumber":2,"parameterNumberName":"U-component_of_WINDS"},"data":[0,0,0,0,0,0,0,0,0,0,0,0,0,0,0,0,0,0,0,0,0,0,0,0,0,0,0,0,0,0,0,0,0,0,0,0,0,0,0,0,0,0,0,0,0,0,0,0,0,0,0,0,0,0,0,0,0,0,1.0028,1.0029,0,1.0155,1.0157,1.0158,1.0158,1.0156,1.0155,1.0153,1.0288,1.0293,1.0298,0,0,0,0,0,0,0,0,0,0,0,0,0,0.9791,0.9795,1.0028,1.0029,1.0031,1.0155,1.0157,1.0158,1.0158,1.0156,1.0154,1.0152,1.0287,1.0293,1.0299,0,0,0,0,0,0,0,0,0,0,0,0,0,0.9904,0.9797,1.0028,1.0046,1.0049,1.0154,1.0157,1.0159,1.0159,1.0156,1.0154,1.0151,1.0285,1.0292,1.03,1.0397,0,0,1.0323,1.0327,0,0,0,0,0,0,0,0,0.9897,0.9913,1.0042,1.0045,1.0048,1.0138,1.0123,1.0239,1.0159,1.0117,1.0153,1.015,1.0241,1.0252,1.0281,1.0404,1.041,1.0324,1.0329,1.0332,1.0334,0,0,0,0,0,0,0,0.989,0.9907,1.0078,1.0043,1.0048,1.005,1.0063,1.0145,1.0192,1.0121,1.0121,1.0136,1.0242,1.0274,1.0285,1.0412,1.0324,1.0331,1.0336,1.0339,1.0622,1.0625,0,0,0,0,0,0,0.9877,0.9901,1.0074,1.0082,0.9965,1.0056,1.0071,1.0112,1.0191,1.02,1.0138,1.0135,1.0262,1.0276,1.0289,1.0409,1.0332,1.0339,1.0344,1.0619,1.0622,1.0626,0,0,0,0,0,0,0.9872,0.9893,1.0069,0.9992,1.0014,1.0063,1.0109,1.0116,1.0147,1.0203,1.0212,1.0161,1.026,1.0278,1.037,1.0413,1.0343,1.035,1.0616,1.062,1.0624,1.0648,0,0,0,0,0,0,0.9865,0.9891,0.9927,0.9992,1.0018,1.0146,1.0111,1.012,1.016,1.0158,1.0228,1.0237,1.026,1.0359,1.0378,1.0423,1.0356,1.0612,1.0618,1.0623,1.0643,1.0652,1.066,0,0,0,0,0,0.9857,0.993,0.9929,0.995,1.0064,1.0149,1.0164,1.0187,1.0163,1.0201,1.0237,1.0235,1.0406,1.0368,1.039,1.0437,1.0609,1.0616,1.0622,1.064,1.0651,1.066,0,0,0,0,0,0,0.9869,0.9938,0.9938,1.0034,1.0085,1.0148,1.0196,1.0198,1.0258,1.0254,1.0283,1.0298,1.039,1.0424,1.038,1.0537,1.0505,1.0516,1.0511,1.0522,1.053,1.0519,1.0362,0,0,0,0,0,0.9883,0.9944,1.0002,1.0081,1.0107,1.0147,1.0185,1.0199,1.0254,1.0276,1.0319,1.0374,1.044,1.0483,1.0548,1.0649,1.0665,1.0693,1.0701,1.0708,1.0717,1.0773,1.0786,1.0647,1.0647,1.0647,0,0,0.9912,0.9957,0.9994,1.0085,1.0126,1.019,1.0165,1.0235,1.0283,1.0287,1.0375,1.041,1.0473,1.057,1.0616,1.0601,1.0759,1.0716,1.0721,1.0726,1.0781,1.0794,1.0806,1.0651,1.065,1.065,0,0,0.9997,1.0038,1.0107,1.015,1.0212,1.0239,1.0256,1.032,1.0342,1.0431,1.0436,1.0496,1.0609,1.0654,1.0692,1.0797,1.0797,1.0817,1.086,1.0915,1.0926,1.0936,1.0973,1.0985,1.0826,1.0826,1.0826,0,1.0025,1.012,1.0144,1.0213,1.0253,1.0259,1.0331,1.0371,1.0453,1.0481,1.0464,1.0607,1.065,1.0758,1.0783,1.0814,1.0835,1.0808,1.0922,1.0932,1.0942,1.0977,1.0991,1.0828,1.0828,1.0828,1.0828,0,1.0152,1.0219,1.0268,1.0344,1.0391,1.0461,1.0497,1.0541,1.0552,1.0581,1.0673,1.0726,1.08,1.0828,1.0839,1.0938,1.0927,1.0916,1.0884,1.0957,1.099,1.1004,1.0831,1.083,1.083,1.0829,0,0,1.0245,1.0335,1.0353,1.0388,1.0459,1.0512,1.0584,1.0656,1.0693,1.075,1.0811,1.0908,1.0898,1.0942,1.0959,1.1007,1.1086,1.0991,1.0993,1.1005,1.1198,1.1204,1.1219,1.1088,1.1091,1.1093,1.1192,0,1.0337,1.0462,1.0486,1.0596,1.0658,1.0666,1.0729,1.0781,1.0811,1.0869,1.0904,1.0971,1.0954,1.098,1.1028,1.1066,1.1125,1.106,1.1146,1.1148,1.1127,1.1237,1.1244,1.1335,1.1206,1.1208,1.121,0,1.046,1.0518,1.0633,1.0697,1.0724,1.0779,1.0848,1.0904,1.0963,1.0982,1.1031,1.1043,1.112,1.1086,1.1193,1.1148,1.1185,1.121,1.1214,1.1221,1.1182,1.1246,1.1365,1.1378,1.1231,1.1229,1.1228,0,1.0515,1.0623,1.0706,1.0736,1.0812,1.0851,1.0885,1.0942,1.0984,1.1045,1.1073,1.1143,1.1181,1.1236,1.1267,1.124,1.1372,1.1341,1.139,1.1389,1.1415,1.1413,1.154,1.1442,1.1442,1.1442,1.1441,0,1.0613,1.0683,1.0731,1.0782,1.0861,1.089,1.0969,1.1003,1.1054,1.1113,1.1126,1.1181,1.122,1.1282,1.1307,1.1392,1.141,1.1427,1.1433,1.1425,1.1422,1.1448,1.1442,1.1445,1.1445,1.1444,1.1443,0,1.0686,1.0722,1.0812,1.0878,1.0896,1.0952,1.1008,1.1059,1.109,1.1165,1.1184,1.1234,1.1307,1.1344,1.1436,1.1453,1.1548,1.1551,1.1527,1.1529,1.1575,1.1569,1.1722,1.1743,1.1633,1.1634,1.1635,0,1.0745,1.0799,1.0871,1.091,1.0945,1.1009,1.1052,1.1084,1.1128,1.1201,1.1243,1.1317,1.1377,1.1494,1.1539,1.161,1.1613,1.1662,1.1624,1.1614,1.1612,1.1608,1.1613,1.1668,1.1669,1.167,1.167,0,1.0846,1.0862,1.0922,1.0989,1.104,1.1095,1.1149,1.1182,1.1223,1.1273,1.1347,1.1393,1.1487,1.156,1.1634,1.1671,1.1678,1.1682,1.1697,1.1688,1.1672,1.168,1.1543,1.1678,1.1677,1.1677,1.1676,1.1676,1.0914,1.0962,1.102,1.1087,1.1131,1.1182,1.1233,1.1271,1.1333,1.141,1.1426,1.1505,1.1565,1.1665,1.1705,1.1768,1.1758,1.178,1.1785,1.1789,1.179,1.1663,1.1782,1.1782,1.1782,1.1782,1.1782,0,1.1014,1.1052,1.1114,1.1189,1.1243,1.1244,1.1305,1.135,1.1418,1.1474,1.1533,1.1619,1.169,1.1742,1.1815,1.1855,1.186,1.1873,1.187,1.1878,1.1796,1.1775,1.1868,1.1868,1.1868,1.1868,1.1868,1.1868,1.1072,1.1154,1.1176,1.1281,1.1319,1.1395,1.143,1.1477,1.1521,1.1616,1.1675,1.1708,1.1763,1.184,1.1906,1.192,1.1945,1.1958,1.1971,1.1893,1.1884,1.1875,1.1855,1.1964,1.1964,1.2048,1.2049,1.205]},{"header":{"parameterUnit":"m.s-1","parameterCategory":1,"la1":30.2991,"la2":30.254,"lo1":-89.0895,"lo2":-89.0444,"dy":0.0017,"dx":0.0017,"nx":28,"ny":28,"refTime":"2025-08-16T03:00:00:Z","depth":0,"parameterNumber":3,"parameterNumberName":"V-component_of_WINDS"},"data":[0,0,0,0,0,0,0,0,0,0,0,0,0,0,0,0,0,0,0,0,0,0,0,0,0,0,0,0,0,0,0,0,0,0,0,0,0,0,0,0,0,0,0,0,0,0,0,0,0,0,0,0,0,0,0,0,0,0,2.1894,2.1894,0,2.1886,2.1886,2.1886,2.1776,2.1774,2.1771,2.1768,2.1762,2.1765,2.1767,0,0,0,0,0,0,0,0,0,0,0,0,0,2.1813,2.1815,2.1894,2.1894,2.1893,2.1886,2.1886,2.1886,2.1777,2.1774,2.177,2.1767,2.1762,2.1764,2.1767,0,0,0,0,0,0,0,0,0,0,0,0,0,2.1831,2.1816,2.1894,2.1838,2.1833,2.1886,2.1886,2.1886,2.1778,2.1773,2.1769,2.1765,2.1761,2.1764,2.1768,2.1874,0,0,2.1779,2.178,0,0,0,0,0,0,0,0,2.183,2.1834,2.1846,2.1842,2.1836,2.1828,2.1855,2.1882,2.1779,2.1799,2.1768,2.1763,2.1788,2.1789,2.1797,2.1874,2.1874,2.1779,2.1781,2.1783,2.1784,0,0,0,0,0,0,0,2.1829,2.1834,2.1891,2.1847,2.1841,2.1814,2.1811,2.186,2.1817,2.1797,2.1789,2.1789,2.1784,2.1793,2.1796,2.1874,2.1779,2.1782,2.1785,2.1786,2.2034,2.2038,0,0,0,0,0,0,2.1836,2.1834,2.1891,2.189,2.1823,2.1818,2.1816,2.1835,2.1816,2.1809,2.1793,2.1784,2.1789,2.1792,2.1795,2.1915,2.1783,2.1786,2.1789,2.2029,2.2035,2.204,0,0,0,0,0,0,2.1834,2.1842,2.1891,2.186,2.1864,2.1824,2.1846,2.1837,2.1846,2.1813,2.1805,2.181,2.1786,2.179,2.1854,2.1913,2.1788,2.1791,2.2024,2.2031,2.2037,2.2157,0,0,0,0,0,0,2.1833,2.1842,2.1882,2.1862,2.1866,2.1951,2.185,2.184,2.1852,2.1841,2.1827,2.1821,2.1783,2.1849,2.1858,2.1916,2.1794,2.2019,2.2027,2.2035,2.2148,2.2167,2.2184,0,0,0,0,0,2.183,2.1917,2.1885,2.1892,2.1915,2.1954,2.1957,2.1911,2.1858,2.1897,2.1876,2.1821,2.1906,2.1857,2.1866,2.1926,2.2015,2.2025,2.2034,2.214,2.2164,2.2183,0,0,0,0,0,0,2.1947,2.1914,2.1877,2.1961,2.1961,2.1936,2.1984,2.1938,2.1955,2.1943,2.1887,2.1884,2.1957,2.1948,2.1894,2.2026,2.1951,2.1963,2.2028,2.205,2.2068,2.2067,2.1797,0,0,0,0,0,2.1982,2.2016,2.1986,2.2063,2.2065,2.2025,2.204,2.2005,2.2003,2.2003,2.1986,2.1987,2.2013,2.2032,2.2055,2.2148,2.2141,2.2193,2.2211,2.2226,2.2236,2.2281,2.2302,2.2072,2.2072,2.2072,0,0,2.2056,2.2042,2.2067,2.2086,2.2082,2.2117,2.2026,2.2068,2.2094,2.201,2.2067,2.2056,2.2053,2.2131,2.2165,2.2126,2.2299,2.2239,2.2251,2.2252,2.2293,2.2315,2.2334,2.2079,2.2077,2.2076,0,0,2.2207,2.2202,2.2262,2.226,2.2255,2.2228,2.2243,2.2224,2.2212,2.227,2.2207,2.2237,2.2285,2.2284,2.229,2.244,2.2389,2.245,2.2542,2.2586,2.2604,2.262,2.267,2.2689,2.2461,2.2461,2.2461,0,2.2298,2.2349,2.23,2.2345,2.2354,2.2279,2.2339,2.234,2.2344,2.2351,2.2309,2.2364,2.2358,2.2433,2.2469,2.2478,2.2491,2.2449,2.2606,2.2621,2.2635,2.2682,2.2701,2.2468,2.2467,2.2466,2.2466,0,2.246,2.2497,2.2547,2.255,2.2565,2.2618,2.2576,2.2597,2.2561,2.2538,2.2597,2.2586,2.2604,2.262,2.2586,2.269,2.2665,2.2616,2.2538,2.2665,2.2707,2.2725,2.2478,2.2475,2.2473,2.2472,0,0,2.2683,2.2657,2.2675,2.2674,2.2663,2.269,2.274,2.2756,2.2774,2.2779,2.2817,2.2859,2.2812,2.2819,2.2785,2.2824,2.2939,2.2769,2.2768,2.2797,2.3048,2.3083,2.3105,2.2907,2.291,2.2913,2.3047,0,2.2825,2.2906,2.2862,2.2949,2.298,2.291,2.2952,2.295,2.293,2.2954,2.2933,2.2962,2.2899,2.2902,2.2939,2.2917,2.2988,2.2908,2.294,2.2942,2.2938,2.3128,2.3165,2.3292,2.3064,2.3067,2.3069,0,2.3001,2.3011,2.3101,2.308,2.3092,2.3131,2.3141,2.3165,2.3161,2.3144,2.3151,2.3107,2.3153,2.308,2.3142,2.3088,2.3099,2.3091,2.3094,2.3092,2.301,2.3127,2.3332,2.3349,2.3096,2.3094,2.3092,0,2.3149,2.3186,2.3242,2.3245,2.3224,2.3252,2.3245,2.3236,2.3248,2.3258,2.3264,2.3281,2.3288,2.3302,2.3262,2.3213,2.3328,2.3252,2.3313,2.3314,2.3337,2.3336,2.3543,2.3352,2.3352,2.3352,2.3351,0,2.3309,2.3366,2.3308,2.3343,2.3403,2.3353,2.3415,2.3401,2.3393,2.3423,2.3366,2.3395,2.3343,2.3368,2.3339,2.3392,2.3398,2.3384,2.3374,2.3386,2.3388,2.339,2.3378,2.3357,2.3356,2.3355,2.3354,0,2.3483,2.3447,2.3503,2.3479,2.3474,2.3519,2.3498,2.3529,2.3506,2.3545,2.3551,2.3515,2.354,2.3503,2.3526,2.3506,2.3579,2.3558,2.3579,2.3572,2.3633,2.3626,2.3846,2.3871,2.3668,2.367,2.3672,0,2.3585,2.3626,2.3606,2.3621,2.3616,2.3643,2.3654,2.3607,2.362,2.3618,2.3649,2.3669,2.3683,2.3728,2.3703,2.372,2.3696,2.3772,2.3698,2.3708,2.3693,2.3689,2.3691,2.3786,2.3789,2.3791,2.3792,0,2.377,2.3749,2.3767,2.3778,2.3792,2.3799,2.3802,2.3819,2.3769,2.3787,2.3812,2.3823,2.3845,2.3865,2.3875,2.3868,2.3821,2.3816,2.383,2.3841,2.385,2.3842,2.3616,2.381,2.3809,2.3807,2.3806,2.3806,2.3908,2.394,2.3929,2.395,2.3947,2.395,2.3977,2.3956,2.3976,2.3988,2.396,2.3991,2.3985,2.3993,2.3991,2.4015,2.3981,2.4003,2.4008,2.4013,2.402,2.385,2.4017,2.4016,2.4016,2.4015,2.4015,0,2.4085,2.4075,2.4095,2.4099,2.4115,2.407,2.4071,2.4087,2.4115,2.4112,2.4126,2.4154,2.4173,2.415,2.4166,2.4189,2.4168,2.4194,2.419,2.4188,2.4051,2.4035,2.421,2.421,2.421,2.421,2.421,2.421,2.4179,2.423,2.4208,2.4256,2.4245,2.4274,2.4277,2.428,2.4277,2.431,2.4325,2.431,2.4299,2.4312,2.4328,2.4321,2.4327,2.4361,2.4346,2.4217,2.4198,2.418,2.4164,2.4363,2.4364,2.448,2.4481,2.4482]}]]